This is the latest recevied weather packets stored in our database for station/object K7DC. If no packets are shown the sender has not sent any weather packets the latest 10 day(s).
| Time | Temp. | Humidity | Pressure | Rain* | Wind** | Luminosity | Snow |
|---|---|---|---|---|---|---|---|
| 1777499001 | 31.11° C | 11% | 1013.9 hPa | 0 mm | - | 426 W/m² | - |
| 1777498697 | 30.56° C | 11% | 1014 hPa | 0 mm | - | 393 W/m² | - |
| 1777498394 | 31.11° C | 12% | 1014.1 hPa | 0 mm | - | 628 W/m² | - |
| 1777498091 | 30.56° C | 12% | 1014.2 hPa | 0 mm | - | 572 W/m² | - |
| 1777497788 | 30.56° C | 12% | 1014.3 hPa | 0 mm | - | 385 W/m² | - |
| 1777497484 | 30.56° C | 12% | 1014.2 hPa | 0 mm | - | 400 W/m² | - |
| 1777497181 | 31.11° C | 12% | 1014.2 hPa | 0 mm | - | 369 W/m² | - |
| 1777496877 | 31.11° C | 12% | 1014.4 hPa | 0 mm | - | 366 W/m² | - |
| 1777496574 | 31.11° C | 12% | 1014.5 hPa | 0 mm | - | 436 W/m² | - |
| 1777496270 | 30.56° C | 12% | 1014.6 hPa | 0 mm | - | 452 W/m² | - |
| 1777495967 | 30° C | 12% | 1014.8 hPa | 0 mm | - | 385 W/m² | - |
| 1777495663 | 30.56° C | 12% | 1015 hPa | 0 mm | - | 364 W/m² | - |
| 1777495359 | 30.56° C | 12% | 1015.1 hPa | 0 mm | - | 424 W/m² | - |
| 1777495056 | 30.56° C | 12% | 1015.1 hPa | 0 mm | - | 666 W/m² | - |
| 1777494753 | 31.11° C | 11% | 1015 hPa | 0 mm | - | 761 W/m² | - |
| 1777494451 | 30.56° C | 12% | 1015 hPa | 0 mm | - | 552 W/m² | - |
| 1777494147 | 30° C | 12% | 1015.1 hPa | 0 mm | - | 595 W/m² | - |
| 1777493844 | 28.89° C | 12% | 1015.1 hPa | 0 mm | - | 612 W/m² | - |
| 1777493542 | 30° C | 12% | 1015.1 hPa | 0 mm | - | 738 W/m² | - |
| 1777493239 | 30.56° C | 12% | 1015.5 hPa | 0 mm | - | 710 W/m² | - |
| 1777492935 | 31.11° C | 11% | 1015.5 hPa | 0 mm | - | 660 W/m² | - |
| 1777492632 | 30.56° C | 11% | 1015.4 hPa | 0 mm | - | 630 W/m² | - |
| 1777492327 | 31.11° C | 11% | 1015.5 hPa | 0 mm | - | 640 W/m² | - |
| 1777492024 | 30.56° C | 11% | 1015.7 hPa | 0 mm | - | 878 W/m² | - |
| 1777491721 | 30° C | 12% | 1015.8 hPa | 0 mm | - | 679 W/m² | - |
* Rain latest hour (hover to see other rain measurements)
** Current wind speed in m/s (hover to see current wind gust speed)